| time (UTC) | temp C | wind direction | speed KPH | gust KPH | rain 1hr cm | rain 24hr cm | rain mn cm | humidity % | barometer mb |
| 20260508070051 | 8 | 0 | 0.0 | 0.0 | 0.00 | 0.00 | 0.00 | 100 | 1015.9 |
| 20260508064544 | 7 | 0 | 0.0 | 0.0 | 0.00 | 0.00 | 0.00 | 100 | 1015.9 |
| 20260508063039 | 7 | 0 | 0.0 | 0.0 | 0.00 | 0.00 | 0.00 | 100 | 1015.8 |
| 20260508061538 | 7 | 0 | 0.0 | 0.0 | 0.00 | 0.00 | 0.00 | 100 | 1015.7 |
| 20260508060040 | 7 | 0 | 0.0 | 0.0 | 0.00 | 0.00 | 0.00 | 100 | 1015.7 |
| 20260508054542 | 6 | 0 | 0.0 | 0.0 | 0.00 | 0.00 | 0.00 | 100 | 1015.7 |
| 20260508053038 | 6 | 0 | 0.0 | 0.0 | 0.00 | 0.00 | 0.00 | 100 | 1015.7 |
| 20260508051541 | 6 | 0 | 0.0 | 0.0 | 0.00 | 0.00 | 0.00 | 100 | 1015.6 |
| 20260508050039 | 5 | 0 | 0.0 | 0.0 | 0.00 | 0.00 | 0.00 | 100 | 1015.5 |
| 20260508044535 | 5 | 0 | 0.0 | 0.0 | 0.00 | 0.00 | 0.00 | 100 | 1015.5 |
| 20260508043037 | 5 | 0 | 0.0 | 0.0 | 0.00 | 0.00 | 0.00 | 100 | 1015.5 |
| 20260508041537 | 6 | 0 | 0.0 | 0.0 | 0.00 | 0.00 | 0.00 | 100 | 1015.4 |
| 20260508040036 | 6 | 0 | 0.0 | 0.0 | 0.00 | 0.00 | 0.00 | 100 | 1015.3 |
| 20260508034539 | 6 | 0 | 0.0 | 0.0 | 0.00 | 0.00 | 0.00 | 100 | 1015.4 |
| 20260508033053 | 6 | 0 | 0.0 | 0.0 | 0.00 | 0.00 | 0.00 | 100 | 1015.5 |
| 20260508031537 | 6 | 0 | 0.0 | 0.0 | 0.00 | 0.00 | 0.00 | 100 | 1015.6 |
| 20260508030036 | 5 | 0 | 0.0 | 0.0 | 0.00 | 0.00 | 0.00 | 100 | 1015.7 |
| 20260508024540 | 5 | 0 | 0.0 | 0.0 | 0.00 | 0.00 | 0.00 | 100 | 1015.6 |
| 20260508023040 | 5 | 0 | 0.0 | 0.0 | 0.00 | 0.00 | 0.00 | 100 | 1015.6 |
| 20260508021537 | 5 | 0 | 0.0 | 0.0 | 0.00 | 0.00 | 0.00 | 100 | 1015.5 |
| 20260508020048 | 4 | 0 | 0.0 | 0.0 | 0.00 | 0.00 | 0.00 | 100 | 1015.5 |
| 20260508014632 | 4 | 0 | 0.0 | 0.0 | 0.00 | 0.00 | 0.00 | 100 | 1015.5 |
| 20260508013034 | 4 | 0 | 0.0 | 0.0 | 0.00 | 0.00 | 0.00 | 100 | 1015.6 |
| 20260508011541 | 3 | 0 | 0.0 | 0.0 | 0.00 | 0.00 | 0.00 | 100 | 1015.8 |
| 20260508010038 | 3 | 0 | 0.0 | 0.0 | 0.00 | 0.00 | 0.00 | 100 | 1015.7 |
| 20260508004540 | 3 | 0 | 0.0 | 0.0 | 0.00 | 0.00 | 0.00 | 100 | 1015.7 |
| 20260508003043 | 3 | 0 | 0.0 | 0.0 | 0.00 | 0.00 | 0.00 | 100 | 1015.8 |
| 20260508001548 | 3 | 0 | 0.0 | 0.0 | 0.00 | 0.00 | 0.00 | 100 | 1015.8 |
| 20260508000034 | 3 | 0 | 0.0 | 0.0 | 0.00 | 0.00 | 0.00 | 100 | 1015.7 |
| 20260507234537 | 3 | 0 | 0.0 | 0.0 | 0.00 | 0.00 | 0.00 | 100 | 1015.8 |
| 20260507233036 | 3 | 0 | 0.0 | 0.0 | 0.00 | 0.00 | 0.00 | 100 | 1015.8 |
| 20260507231538 | 3 | 0 | 0.0 | 0.0 | 0.00 | 0.00 | 0.00 | 100 | 1015.6 |
| 20260507230038 | 3 | 0 | 0.0 | 0.0 | 0.00 | 0.00 | 0.00 | 100 | 1015.6 |
| 20260507224537 | 3 | 0 | 0.0 | 0.0 | 0.00 | 0.00 | 0.00 | 100 | 1015.6 |
| 20260507223034 | 3 | 0 | 0.0 | 0.0 | 0.00 | 0.00 | 0.00 | 100 | 1015.7 |
| 20260507221539 | 3 | 0 | 0.0 | 0.0 | 0.00 | 0.00 | 0.00 | 100 | 1015.7 |
| 20260507220049 | 3 | 0 | 0.0 | 0.0 | 0.00 | 0.00 | 0.00 | 100 | 1015.8 |
| 20260507214540 | 3 | 0 | 0.0 | 0.0 | 0.00 | 0.00 | 0.00 | 100 | 1015.6 |
| 20260507213044 | 3 | 0 | 0.0 | 0.0 | 0.00 | 0.00 | 0.00 | 100 | 1015.6 |
| 20260507211549 | 3 | 0 | 0.0 | 0.0 | 0.00 | 0.00 | 0.00 | 100 | 1015.6 |
| 20260507210042 | 4 | 0 | 0.0 | 0.0 | 0.00 | 0.00 | 0.00 | 100 | 1015.4 |
| 20260507204539 | 5 | 0 | 0.0 | 0.0 | 0.00 | 0.00 | 0.00 | 100 | 1015.4 |
| 20260507203035 | 6 | 0 | 0.0 | 0.0 | 0.00 | 0.00 | 0.00 | 100 | 1015.3 |
| 20260507201548 | 6 | 0 | 0.0 | 0.0 | 0.00 | 0.00 | 0.00 | 100 | 1015.1 |
| 20260507200044 | 8 | 0 | 0.0 | 0.0 | 0.00 | 0.00 | 0.00 | 5 | 1014.9 |
| 20260507194535 | 8 | 0 | 0.0 | 0.0 | 0.00 | 0.00 | 0.00 | 16 | 1014.8 |
| 20260507193041 | 10 | 0 | 0.0 | 0.0 | 0.00 | 0.00 | 0.00 | 22 | 1014.6 |
| 20260507191537 | 10 | 0 | 0.0 | 0.0 | 0.00 | 0.00 | 0.00 | 28 | 1014.6 |
| 20260507190043 | 11 | 0 | 0.0 | 0.0 | 0.00 | 0.00 | 0.00 | 32 | 1014.7 |
| 20260507184541 | 11 | 0 | 0.0 | 0.0 | 0.00 | 0.00 | 0.00 | 33 | 1014.4 |
| 20260507183049 | 11 | 0 | 0.0 | 0.0 | 0.00 | 0.00 | 0.00 | 33 | 1014.5 |
| 20260507181534 | 11 | 0 | 0.0 | 0.0 | 0.00 | 0.00 | 0.00 | 33 | 1014.5 |
| 20260507180046 | 11 | 0 | 0.0 | 0.0 | 0.00 | 0.00 | 0.00 | 33 | 1014.4 |
| 20260507174542 | 12 | 0 | 0.0 | 0.0 | 0.00 | 0.00 | 0.00 | 30 | 1014.4 |
| 20260507173055 | 13 | 0 | 0.0 | 0.0 | 0.00 | 0.00 | 0.00 | 26 | 1014.5 |
| 20260507171538 | 13 | 145 | 1.6 | 6.4 | 0.00 | 0.00 | 0.00 | 28 | 1014.4 |
| 20260507170047 | 13 | 0 | 0.0 | 4.8 | 0.00 | 0.00 | 0.00 | 27 | 1014.3 |
| 20260507164535 | 14 | 152 | 1.6 | 11.3 | 0.00 | 0.00 | 0.00 | 24 | 1014.3 |
| 20260507163037 | 15 | 250 | 3.2 | 9.7 | 0.00 | 0.00 | 0.00 | 19 | 1014.1 |
| 20260507161549 | 15 | 134 | 1.6 | 9.7 | 0.00 | 0.00 | 0.00 | 19 | 1014.2 |
| 20260507160040 | 13 | 302 | 3.2 | 9.7 | 0.00 | 0.00 | 0.00 | 20 | 1014.4 |
| 20260507154542 | 13 | 217 | 3.2 | 11.3 | 0.00 | 0.00 | 0.00 | 24 | 1014.2 |
| 20260507153037 | 13 | 150 | 3.2 | 8.0 | 0.00 | 0.00 | 0.00 | 23 | 1014.2 |
| 20260507151535 | 13 | 250 | 4.8 | 11.3 | 0.00 | 0.00 | 0.00 | 23 | 1014.2 |
| 20260507150036 | 12 | 233 | 3.2 | 14.5 | 0.00 | 0.00 | 0.00 | 27 | 1014.4 |
| 20260507144537 | 12 | 122 | 1.6 | 9.7 | 0.00 | 0.00 | 0.00 | 27 | 1014.4 |
| 20260507143037 | 12 | 80 | 3.2 | 9.7 | 0.00 | 0.00 | 0.00 | 26 | 1014.4 |
| 20260507141538 | 12 | 314 | 3.2 | 12.9 | 0.00 | 0.00 | 0.00 | 27 | 1014.4 |
| 20260507140038 | 13 | 105 | 6.4 | 12.9 | 0.00 | 0.00 | 0.00 | 25 | 1014.4 |
| 20260507134540 | 13 | 132 | 1.6 | 12.9 | 0.00 | 0.00 | 0.00 | 25 | 1014.5 |
| 20260507133044 | 13 | 0 | 1.6 | 9.7 | 0.00 | 0.00 | 0.00 | 24 | 1014.2 |
| 20260507131546 | 13 | 306 | 3.2 | 9.7 | 0.00 | 0.00 | 0.00 | 24 | 1014.4 |
| 20260507130038 | 13 | 193 | 3.2 | 14.5 | 0.00 | 0.00 | 0.00 | 21 | 1014.4 |
| 20260507124538 | 14 | 297 | 0.0 | 8.0 | 0.00 | 0.00 | 0.00 | 19 | 1014.4 |
| 20260507123040 | 13 | 0 | 1.6 | 8.0 | 0.00 | 0.00 | 0.00 | 20 | 1014.3 |
| 20260507121538 | 13 | 116 | 0.0 | 6.4 | 0.00 | 0.00 | 0.00 | 17 | 1014.3 |
| 20260507120037 | 13 | 0 | 0.0 | 1.6 | 0.00 | 0.00 | 0.00 | 19 | 1014.3 |
| 20260507114537 | 13 | 0 | 1.6 | 6.4 | 0.00 | 0.00 | 0.00 | 19 | 1014.3 |
| 20260507113047 | 13 | 0 | 0.0 | 3.2 | 0.00 | 0.00 | 0.00 | 17 | 1014.4 |
| 20260507111542 | 13 | 0 | 0.0 | 8.0 | 0.00 | 0.00 | 0.00 | 15 | 1014.4 |
| 20260507110054 | 13 | 273 | 1.6 | 8.0 | 0.00 | 0.00 | 0.00 | 14 | 1014.5 |
| 20260507104543 | 12 | 115 | 3.2 | 9.7 | 0.00 | 0.00 | 0.00 | 14 | 1014.7 |
| 20260507103053 | 12 | 82 | 0.0 | 6.4 | 0.00 | 0.00 | 0.00 | 13 | 1014.8 |
| 20260507101539 | 11 | 106 | 3.2 | 11.3 | 0.00 | 0.00 | 0.00 | 13 | 1015.1 |
| 20260507100055 | 11 | 0 | 0.0 | 4.8 | 0.00 | 0.00 | 0.00 | 11 | 1015.1 |
| 20260507094538 | 11 | 0 | 0.0 | 0.0 | 0.00 | 0.00 | 0.00 | 9 | 1015.2 |
| 20260507093037 | 11 | 0 | 0.0 | 0.0 | 0.00 | 0.00 | 0.00 | 5 | 1015.2 |
| 20260507091542 | 10 | 0 | 0.0 | 0.0 | 0.00 | 0.00 | 0.00 | 1 | 1015.1 |
| 20260507090036 | 10 | 0 | 0.0 | 0.0 | 0.00 | 0.00 | 0.00 | 100 | 1015.2 |
| 20260507084543 | 9 | 0 | 0.0 | 0.0 | 0.00 | 0.00 | 0.00 | 100 | 1015.1 |
| 20260507083044 | 8 | 0 | 0.0 | 0.0 | 0.00 | 0.00 | 0.00 | 100 | 1015.1 |
| 20260507081538 | 8 | 0 | 0.0 | 0.0 | 0.00 | 0.00 | 0.00 | 100 | 1015.2 |
| 20260507080045 | 7 | 0 | 0.0 | 0.0 | 0.00 | 0.00 | 0.00 | 100 | 1015.2 |
| 20260507074537 | 7 | 0 | 0.0 | 0.0 | 0.00 | 0.00 | 0.00 | 100 | 1015.2 |
| 20260507073040 | 6 | 0 | 0.0 | 0.0 | 0.00 | 0.00 | 0.00 | 100 | 1015.0 |
| 20260507071539 | 6 | 0 | 0.0 | 0.0 | 0.00 | 0.00 | 0.00 | 100 | 1015.1 |